CST,Max TemperatureF,Mean TemperatureF,Min TemperatureF,Max Dew PointF,MeanDew PointF,Min DewpointF,Max Humidity, Mean Humidity, Min Humidity, Max Sea Level PressureIn, Mean Sea Level PressureIn, Min Sea Level PressureIn, Max VisibilityMiles, Mean VisibilityMiles, Min VisibilityMiles, Max Wind SpeedMPH, Mean Wind SpeedMPH, Max Gust SpeedMPH,PrecipitationIn, CloudCover, Events, WindDirDegrees
2013-11-1,44,38,32,41,36,32,100,91,76,29.97,29.74,29.52,10,10,9,23,11,30,0.00,5,Rain,294
2013-11-2,51,38,26,37,33,27,100,84,47,30.07,30.00,29.92,10,7,0,13,7,,0.03,1,Snow,230
2013-11-3,55,44,32,36,33,30,100,70,47,29.91,29.67,29.57,10,3,0,23,13,34,1.49,0,Fog-Rain-Snow,137
2013-11-4,42,33,24,36,27,19,100,74,49,30.10,29.87,29.63,10,8,1,22,11,30,0.00,1,,266
2013-11-5,37,30,23,25,20,14,93,69,38,30.21,30.15,30.11,6,2,0,12,6,,0.00,1,Fog,249
2013-11-6,42,28,15,30,25,16,100,87,57,30.15,30.09,30.04,10,3,0,15,6,17,0.00,3,Fog,222
2013-11-7,46,32,19,27,23,18,100,77,43,30.24,30.18,30.08,10,6,0,22,10,25,0.00,1,Fog,264
2013-11-8,44,32,21,39,33,19,100,91,61,30.06,29.71,29.53,10,4,0,22,10,31,0.06,7,Fog-Rain,175
2013-11-9,41,32,24,41,29,25,100,78,60,30.31,30.03,29.68,10,10,10,30,19,40,0.00,7,,298
2013-11-10,39,28,17,32,24,3,100,86,46,30.32,30.22,30.09,10,4,0,28,9,32,0.00,4,Fog,207
2013-11-11,19,12,6,9,5,3,92,71,58,30.75,30.60,30.33,9,2,0,22,15,28,0.00,4,Snow,342
2013-11-12,35,20,6,19,12,1,85,69,44,30.74,30.53,30.18,10,9,3,21,11,28,0.00,0,,191
2013-11-13,57,40,24,37,30,19,100,77,41,30.17,29.94,29.86,10,10,10,22,14,26,0.00,1,,224
2013-11-14,50,38,26,37,34,25,100,84,58,29.86,29.80,29.76,10,10,10,17,7,25,0.00,1,,252
2013-11-15,46,32,19,43,31,19,100,91,61,29.79,29.60,29.37,10,10,3,20,6,29,0.00,1,Rain,160
2013-11-16,42,35,28,41,36,28,100,99,87,29.38,29.31,29.23,10,8,2,13,8,,0.00,5,Rain,355
2013-11-17,35,30,26,36,30,21,100,93,80,29.96,29.63,29.36,10,9,1,21,10,30,0.00,7,Rain,312
2013-11-18,37,30,23,25,24,21,100,86,60,30.15,30.08,29.97,10,10,10,10,6,,0.00,2,,190
2013-11-19,48,36,23,36,29,23,100,83,54,30.04,29.73,29.54,10,10,9,17,9,23,0.00,0,,130
2013-11-20,35,27,19,32,24,14,100,85,69,30.19,29.87,29.60,10,10,8,26,11,32,0.00,2,Snow,346
2013-11-21,19,12,5,14,6,0,86,76,62,30.62,30.48,30.20,10,10,3,31,20,38,0.09,4,Rain-Snow,321
2013-11-22,24,12,1,16,5,-2,92,80,63,30.79,30.58,30.46,10,10,2,22,13,25,0.18,1,Rain-Snow,282
2013-11-23,14,5,-4,3,-2,-9,92,77,53,30.89,30.76,30.52,10,10,10,14,8,17,0.00,0,,233
2013-11-24,46,28,10,27,16,5,86,65,34,30.50,30.05,29.84,10,10,10,33,16,41,0.00,1,,199
2013-11-25,35,30,23,27,23,16,100,78,60,30.21,30.05,29.88,10,10,10,26,15,34,0.00,6,Rain,301
2013-11-26,23,14,5,14,7,1,100,71,46,30.42,30.37,30.22,10,10,10,29,18,33,0.00,1,Snow,323
2013-11-27,32,16,0,18,10,0,100,75,41,30.39,30.09,29.90,10,10,10,25,9,30,0.00,1,,188
2013-11-28,24,15,6,19,12,5,92,76,54,30.41,30.33,30.12,10,10,8,21,12,26,0.00,4,Snow,355
2013-11-29,33,22,12,23,17,9,100,81,60,30.39,30.12,29.97,10,10,10,23,11,28,0.00,0,,163
2013-11-30,35,25,15,27,23,16,100,88,65,30.18,30.10,29.99,10,10,3,13,5,,0.00,5,,327